Raduga

operational
NORAD ID: 12351 Int'l Des: 1981-027 Owner: GUKOS Country: SU
MEOCIRCULAR

关于 Raduga

正在加载描述...

实时位置

正在加载3D地球...

即将过境

高度历史

Altitude vs Time

uPlot chart will show altitude changes over time

两行轨道根数

1 12351U 81027A 26061.58283387 .00000081 00000-0 00000-0 0 9998
2 12351 6.5491 290.4248 0079862 271.9232 25.6173 1.00395652121476
Epoch: Mar 2, 2026 • Age: 31 hours

当前状态

高度 35712.7 km
速度 3.08 km/s
星下点 -0.89°S, 142.82°W
发射日期 Mar 18, 1981
运行时间 44.9 years
类型 other

技术详情

分类 Payload
质量 1965.00 kg
干质量 1800.00 kg
总质量 1965.00 kg
长度 5.50 m
直径 2.50 m
跨度 9.50 m
形状 Step Cyl + 2 Pan
制造商 NPOPM
平台类型 Raduga
阶段状态 In Orbit
所有者/国家 GUKOS/SU

大型星座

Loading constellations...